Laramie, WY

9:14 AM MDT on August 21, 2017 (GMT -0600)
Laramie Regional

Weather History for KLAR - September, 2012

Change the Weather History Date:

Monday, September 3, 2012

  Actual Average Record
Temperature  
Mean Temperature 63 °F 58 °F  
Max Temperature 79 °F 74 °F 87 °F (1978)
Min Temperature 47 °F 42 °F 19 °F (1974)
Degree Days  
Heating Degree Days 2 7  
Month to date heating degree days 2 20  
Since 1 July heating degree days 59 192  
Cooling Degree Days 0 0  
Month to date cooling degree days 0 0  
Year to date cooling degree days 211 66  
Growing Degree Days 14 (Base 50)    
Moisture  
Dew Point 33 °F    
Average Humidity 39    
Maximum Humidity 66    
Minimum Humidity 12    
Precipitation  
Precipitation 0.00 in 0.04 in 0.71 in (1990)
Month to date precipitation T 0.11  
Year to date precipitation 4.42 8.26  
Sea Level Pressure  
Sea Level Pressure 29.97 in    
Wind  
Wind Speed 13 mph (WSW)    
Max Wind Speed 29 mph    
Max Gust Speed 38 mph    
Visibility 10 miles    
Events      
T = Trace of Precipitation, MM = Missing Value Source: NWS Daily Summary

Daily Weather History Graph

Daily Weather History Graph

Search for Another Location

Airport or City:

Trip Planner

Search our weather history database for the weather conditions in past years. The results will help you decide how hot, cold, wet, or windy it might be!

Date:

Astronomy

Sep. 03, 2012 Rise Set
Actual Time 6:31 AM MDT 7:31 PM MDT
Civil Twilight 6:03 AM MDT 7:59 PM MDT
Nautical Twilight 5:29 AM MDT 8:33 PM MDT
Astronomical Twilight 4:54 AM MDT 9:07 PM MDT
Moon 8:48 PM MDT (9/3) 9:45 AM MDT (9/3)
Length of Visible Light 13h 56m
Length of Day
12h 59m
Waning Gibbous, 90% of the Moon is Illuminated
Sep 3
Waning Gibbous
Sep 8
Last Quarter
Sep 15
New
Sep 22
First Quarter
Sep 29
Full

Hourly Weather History & Observations

Time (MDT) Temp. Dew Point Humidity Pressure Visibility Wind Dir Wind Speed Gust Speed Precip Events Conditions
12:53 AM 57.0 °F 43.0 °F 59% 29.94 in 10.0 mi South 11.5 mph - N/A   Clear
1:53 AM 55.9 °F 42.1 °F 60% 29.93 in 10.0 mi South 10.4 mph - N/A   Clear
2:53 AM 55.4 °F 39.2 °F 54% 30.26 in 10.0 mi SSW 6.9 mph - N/A   Clear
3:53 AM 50.0 °F 39.9 °F 68% 29.96 in 10.0 mi SSE 6.9 mph - N/A   Clear
4:53 AM 51.1 °F 37.9 °F 61% 29.96 in 10.0 mi South 9.2 mph - N/A   Clear
5:53 AM 50.0 °F 37.0 °F 61% 29.98 in 10.0 mi SSW 5.8 mph - N/A   Clear
6:53 AM 51.1 °F 37.9 °F 61% 30.00 in 10.0 mi SSW 6.9 mph - N/A   Partly Cloudy
7:53 AM 55.9 °F 37.9 °F 51% 30.01 in 10.0 mi West 6.9 mph - N/A   Clear
8:53 AM 66.0 °F 37.0 °F 34% 29.98 in 10.0 mi WSW 13.8 mph - N/A   Clear
9:53 AM 69.1 °F 37.0 °F 31% 29.99 in 10.0 mi West 13.8 mph 23.0 mph N/A   Clear
10:53 AM 71.1 °F 30.0 °F 22% 29.97 in 10.0 mi WNW 13.8 mph 29.9 mph N/A   Mostly Cloudy
11:53 AM 75.0 °F 25.0 °F 16% 29.95 in 10.0 mi WNW 26.5 mph 33.4 mph N/A   Partly Cloudy
12:53 PM 77.0 °F 25.0 °F 15% 29.95 in 10.0 mi West 23.0 mph 29.9 mph N/A   Partly Cloudy
1:53 PM 78.1 °F 25.0 °F 14% 29.93 in 10.0 mi WNW 24.2 mph 34.5 mph N/A   Clear
2:53 PM 75.0 °F 24.1 °F 15% 29.93 in 10.0 mi West 21.9 mph 31.1 mph N/A   Partly Cloudy
3:53 PM 77.0 °F 23.0 °F 13% 29.93 in 10.0 mi WNW 20.7 mph 33.4 mph N/A   Partly Cloudy
4:53 PM 77.0 °F 21.9 °F 13% 29.92 in 10.0 mi WNW 19.6 mph 27.6 mph N/A   Partly Cloudy
5:53 PM 75.9 °F 23.0 °F 14% 29.92 in 10.0 mi NW 18.4 mph - N/A   Partly Cloudy
6:53 PM 72.0 °F 25.0 °F 17% 29.94 in 10.0 mi WNW 12.7 mph - N/A   Clear
7:53 PM 68.0 °F 35.1 °F 30% 29.96 in 10.0 mi SW 10.4 mph - N/A   Scattered Clouds
8:53 PM 60.1 °F 35.1 °F 39% 29.97 in 10.0 mi SW 8.1 mph - N/A   Partly Cloudy
9:53 PM 57.0 °F 36.0 °F 45% 29.97 in 10.0 mi SSW 10.4 mph - N/A   Clear
10:53 PM 55.9 °F 36.0 °F 47% 29.97 in 10.0 mi SSW 12.7 mph - N/A   Partly Cloudy
11:53 PM 51.1 °F 35.1 °F 54% 29.97 in 10.0 mi South 5.8 mph - N/A   Clear